Weather in Yulovskiy

Russia / Rostov Oblast     46°39′10″N   41°11′29″E
temp.,
°C
wind,
m/s
gust,
m/s
humid.,
%
clouds,
%
prec.,
mm/h
press.,
hPa
HPBL,
m
13 june, sun
sun1300:00+17w228621 0.0 101213
03:00+16wnw33846 0.0 101232
06:00+17w127871 0.0 101270
09:00+22wsw23613 0.0 1012628
12:00+25ssw22513 0.0 10121547
15:00+26ssw22470 0.0 10111888
18:00+24wnw446472 0.1 1011311
21:00+19wnw227889 0.1 101212
14 june, mon
mon1400:00+18nne018499 0.0 101211
03:00+17e008788 0.0 101211
06:00+19e11844 0.0 101257
09:00+23ese226898 0.1 1012601
12:00+26e335622 1.2 10121503
15:00+26e2254100 1.2 10111666
18:00+24ne1168100 0.0 101115
21:00+22ene357396 0.0 1011111
15 june, tue
tue1500:00+19ene33795 0.0 101049
03:00+18ene3384100 0.0 101049
06:00+18ene388557 0.1 1010246
09:00+23ene3369100 0.1 1010714
12:00+26nne325799 0.2 10091136
15:00+27ne1152100 0.2 10091432
18:00+27nne115532 0.0 10091345
21:00+21nw228022 0.8 100925
16 june, wed
wed1600:00+19nnw11840 0.8 100911
03:00+19n11860 0.8 100911
06:00+19n12878 1.3 101082
09:00+24e22728 2.1 1010659
12:00+23sw578181 3.1 1010519
15:00+20wnw678693 4.8 1011434
18:00+19wnw479097 0.2 1012351
21:00+18n259520 1.1 1013143
17 june, thu
thu1700:00+17n239510 0.7 101259
03:00+16nnw359794 0.9 1012116
06:00+18n489763 0.1 1011281
09:00+22nne7980100 1.1 1010760
12:00+26nne6869100 0.1 10101101
15:00+23n4885100 5.5 1009313
18:00+21wnw4791100 3.0 1009157
21:00+17nnw4798100 28.6 1013203